Regional Weather Roundup
Issued by NWS

Home | Current Version | Previous Version | Graphics & Text | Print | Product List | Glossary On
Versions: 1 2 3 4 5 6 7 8 9 10 11 12 13 14 15 16 17 18 19 20 21 22 23 24 25 26 27 28 29 30 31 32 33 34 35 36 37 38 39 40 41 42 43 44 45 46 47 48 49 50
000
ASUS45 KABQ 091810
RWRNM
NEW MEXICO REGIONAL WEATHER ROUNDUP
NATIONAL WEATHER SERVICE ALBUQUERQUE NM
1100 AM MST FRI DEC 09 2016

NOTE: "FAIR" MEANS FEW OR NO CLOUDS BELOW 12,000 FEET AGL WITH NO
       SIGNIFICANT WEATHER OR OBSTRUCTIONS TO VISION.

      THIS PRODUCT IS RELEASED AS TWO VERSIONS.  ONE VERSION NEAR
      THE TOP OF THE HOUR CONTAINING PRELIMINARY DATA FROM ALBUQUERQUE
      AND OTHER STATIONS.  A FINAL VERSION WITH ADDITIONAL DATA IS
      ISSUED ABOUT 10 MINUTES AFTER THE HOUR.

NMZ501-503-504-510>518-091900-
NORTHWEST PLATEAU/NORTHCENTRAL MOUNTAINS

CITY           SKY/WX    TMP DP  RH WIND       PRES   REMARKS
FARMINGTON     FAIR      38  21  50 CALM      30.35S
6HR MIN TEMP:  22; 6HR MAX TEMP:  38;

LOS ALAMOS     FAIR      33  20  57 CALM      30.34S
SANTA FE       FAIR      37  24  59 W16       30.32F WCI  28
6HR MIN TEMP:  22; 6HR MAX TEMP:  37;

TAOS           FAIR      34  18  51 W8        30.32F WCI  27
ANGEL FIRE     FAIR      37  22  53 SW8G21    30.28F WCI  31

$$
NMZ402-403-502-505>509-091900-
WESTCENTRAL MOUNTAINS/SOUTHWEST MOUNTAINS

CITY           SKY/WX    TMP DP  RH WIND       PRES   REMARKS
GALLUP         FAIR      44  29  55 W7        30.35S
6HR MIN TEMP:  16; 6HR MAX TEMP:  44;

GRANTS         FAIR      40  25  54 NW5       30.36F
SILVER CITY    FAIR      41  31  67 SE6       30.39S

$$
NMZ407-409-411-412-091900-
SOUTHERN DESERTS

CITY           SKY/WX    TMP DP  RH WIND       PRES   REMARKS
DEMING         FAIR      39  29  67 VRB7      30.41F WCI  34
6HR MIN TEMP:  23; 6HR MAX TEMP:  39;

LAS CRUCES     FAIR      39  29  66 SE5       30.43F
HOLLOMAN AFB   FAIR      34  26  74 CALM      30.48F
T OR C         FAIR      38  26  62 SW5       30.39F WCI  34
6HR MIN TEMP:  23; 6HR MAX TEMP:  39;


$$
NMZ519>523-091900-
CENTRAL VALLEYS/CENTRAL HIGHLANDS

CITY           SKY/WX    TMP DP  RH WIND       PRES   REMARKS
ALBUQUERQUE    FAIR      35  26  69 S7        30.38F WCI  29
6HR MIN TEMP:  25; 6HR MAX TEMP:  35;

DOUBLE EAGLE   MOSUNNY  N/A N/A N/A SE8       30.38F
MORIARTY ARPT  FAIR      36  22  58 CALM      30.34F
6HR MIN TEMP:   9; 6HR MAX TEMP:  36;

CLINES CORNERS FAIR      37  25  61 W24       30.28F WCI  26
6HR MIN TEMP:  15; 6HR MAX TEMP:  37;

BELEN          FAIR      37  26  63 S8        30.39F WCI  31
6HR MIN TEMP:  19; 6HR MAX TEMP:  37;

SOCORRO        FAIR      38  27  64 SE8       30.39F WCI  32
6HR MIN TEMP:  24; 6HR MAX TEMP:  38;


$$
NMZ524>526-539-540-091900-
SOUTHCENTRAL MOUNTAINS

CITY           SKY/WX    TMP DP  RH WIND       PRES   REMARKS
RUIDOSO        FAIR      45  25  45 NE6       30.35F

$$
NMZ527>531-091900-
NORTHEAST HIGHLANDS/NORTHEAST PLAINS

CITY           SKY/WX    TMP DP  RH WIND       PRES   REMARKS
LAS VEGAS      FAIR      48  24  39 S10       30.21S
6HR MIN TEMP:  12; 6HR MAX TEMP:  48;

RATON          FAIR      40  19  43 NE9       30.19F WCI  34
6HR MIN TEMP:  17; 6HR MAX TEMP:  40;

CLAYTON        FAIR      52  29  41 S9        30.14F
6HR MIN TEMP:  23; 6HR MAX TEMP:  52;


$$
NMZ532>537-091900-
EASTCENTRAL PLAINS

CITY           SKY/WX    TMP DP  RH WIND       PRES   REMARKS
TUCUMCARI      FAIR      45  28  51 W12       30.22F
6HR MIN TEMP:  25; 6HR MAX TEMP:  45;

CANNON AFB     FAIR      34  32  93 SW16      30.30F WCI  23
CLOVIS AIRPORT CLOUDY    30  25  80 SW21      30.30F WCI  17

$$
NMZ028-029-538-091900-
SOUTHEAST PLAINS

CITY           SKY/WX    TMP DP  RH WIND       PRES   REMARKS
ROSWELL        CLOUDY    30  27  88 SW7       30.39F WCI  23
6HR MIN TEMP:  28; 6HR MAX TEMP:  30;

ARTESIA          N/A     30  30 100 CALM      30.41F
CARLSBAD       NOT AVBL


$$




USA.gov is the U.S. government's official web portal to all federal, state and local government web resources and services.